GJOHN EGBP-EGBJ

Flight info

Callsign GJOHN
Flight time 0h 25m
Altitude 1500
Route KEMBLE CHALFORD BRIMSCOMBE STROUD STONEHOUSE GLOUCESTER
Aircraft C182/L-VGDW/C

Departure

Time 2026-05-04 12:49
Airport Cotswold Airport (EGBP)

Arrival

Time 2026-05-04 13:14
Airport Gloucestershire Airport (EGBJ)
Time Latitude Longitude Altitude Speed Heading
2026-05-04 12:43 51.67030 -2.05337 437 ft 0 kts 236°
2026-05-04 12:45 51.67013 -2.05334 437 ft 4 kts 128°
2026-05-04 12:45 51.66958 -2.05252 437 ft 12 kts 155°
2026-05-04 12:46 51.66941 -2.05341 437 ft 17 kts 266°
2026-05-04 12:46 51.66919 -2.05588 437 ft 26 kts 262°
2026-05-04 12:46 51.66905 -2.05878 437 ft 24 kts 267°
2026-05-04 12:46 51.66878 -2.06075 437 ft 14 kts 225°
2026-05-04 12:47 51.66790 -2.06200 437 ft 15 kts 217°
2026-05-04 12:47 51.66734 -2.06353 437 ft 20 kts 259°
2026-05-04 12:47 51.66712 -2.06603 437 ft 23 kts 265°
2026-05-04 12:47 51.66700 -2.06791 437 ft 8 kts 262°
2026-05-04 12:48 51.66685 -2.06773 437 ft 7 kts 70°
2026-05-04 12:48 51.66695 -2.06709 437 ft 4 kts 77°
2026-05-04 12:48 51.66726 -2.06455 437 ft 50 kts 79°
2026-05-04 12:48 51.66799 -2.05720 537 ft 76 kts 77°
2026-05-04 12:49 51.66907 -2.04840 809 ft 79 kts 75°
2026-05-04 12:49 51.66832 -2.03949 966 ft 90 kts 119°
2026-05-04 12:49 51.66246 -2.03544 1088 ft 96 kts 171°
2026-05-04 12:49 51.65624 -2.03842 1168 ft 98 kts 220°
2026-05-04 12:50 51.65390 -2.04843 1218 ft 98 kts 264°
2026-05-04 12:50 51.65368 -2.05924 1241 ft 97 kts 277°
2026-05-04 12:50 51.65725 -2.06722 1299 ft 85 kts 338°
2026-05-04 12:50 51.66257 -2.07041 1372 ft 80 kts 343°
2026-05-04 12:51 51.66763 -2.07367 1438 ft 77 kts 341°
2026-05-04 12:51 51.67249 -2.07712 1487 ft 77 kts 339°
2026-05-04 12:51 51.67739 -2.08097 1504 ft 81 kts 336°
2026-05-04 12:51 51.68230 -2.08660 1521 ft 96 kts 321°
2026-05-04 12:52 51.68688 -2.09444 1522 ft 108 kts 315°
2026-05-04 12:52 51.69193 -2.10411 1519 ft 116 kts 313°
2026-05-04 12:52 51.69703 -2.11418 1511 ft 117 kts 313°
2026-05-04 12:52 51.70216 -2.12436 1507 ft 117 kts 312°
2026-05-04 12:53 51.70794 -2.13340 1505 ft 116 kts 324°
2026-05-04 12:53 51.71445 -2.14098 1505 ft 115 kts 329°
2026-05-04 12:53 51.72009 -2.15010 1495 ft 120 kts 299°
2026-05-04 12:53 51.72071 -2.16349 1498 ft 122 kts 264°
2026-05-04 12:54 51.71930 -2.17707 1504 ft 121 kts 263°
2026-05-04 12:54 51.72081 -2.18979 1495 ft 117 kts 306°
2026-05-04 12:54 51.72664 -2.19848 1503 ft 113 kts 327°
2026-05-04 12:54 51.73295 -2.20604 1506 ft 113 kts 326°
2026-05-04 12:55 51.73920 -2.21388 1506 ft 115 kts 325°
2026-05-04 12:55 51.74391 -2.22430 1498 ft 119 kts 292°
2026-05-04 12:55 51.74556 -2.23742 1503 ft 120 kts 281°
2026-05-04 12:55 51.74668 -2.25074 1504 ft 120 kts 280°
2026-05-04 12:56 51.74780 -2.26406 1503 ft 120 kts 281°
2026-05-04 12:56 51.74896 -2.27737 1502 ft 120 kts 282°
2026-05-04 12:56 51.75291 -2.28855 1491 ft 115 kts 326°
2026-05-04 12:56 51.76030 -2.29115 1495 ft 110 kts 10°
2026-05-04 12:57 51.76533 -2.28965 1503 ft 109 kts 12°
2026-05-04 12:57 51.77290 -2.28830 1505 ft 110 kts
2026-05-04 12:57 51.78056 -2.28808 1505 ft 111 kts
2026-05-04 12:57 51.78826 -2.28835 1505 ft 111 kts
2026-05-04 12:58 51.79595 -2.28832 1501 ft 110 kts 11°
2026-05-04 12:58 51.80267 -2.28280 1501 ft 109 kts 36°
2026-05-04 12:58 51.80874 -2.27550 1503 ft 109 kts 38°
2026-05-04 12:58 51.81473 -2.26802 1503 ft 109 kts 38°
2026-05-04 12:59 51.82070 -2.26050 1503 ft 109 kts 39°
2026-05-04 12:59 51.82674 -2.25285 1503 ft 109 kts 39°
2026-05-04 12:59 51.83270 -2.24530 1503 ft 109 kts 39°
2026-05-04 12:59 51.83868 -2.23773 1481 ft 111 kts 39°
2026-05-04 13:00 51.84463 -2.23018 1424 ft 103 kts 39°
2026-05-04 13:00 51.84990 -2.22350 1349 ft 91 kts 39°
2026-05-04 13:00 51.85469 -2.21742 1276 ft 84 kts 39°
2026-05-04 13:00 51.85914 -2.21176 1210 ft 79 kts 39°
2026-05-04 13:01 51.86337 -2.20639 1147 ft 76 kts 38°
2026-05-04 13:01 51.86759 -2.20103 1098 ft 78 kts 38°
2026-05-04 13:01 51.87148 -2.19611 1052 ft 80 kts 38°
2026-05-04 13:01 51.87473 -2.18920 1046 ft 76 kts 66°
2026-05-04 13:02 51.87516 -2.18094 1060 ft 73 kts 88°
2026-05-04 13:02 51.87465 -2.17277 1054 ft 73 kts 93°
2026-05-04 13:02 51.87388 -2.16442 1069 ft 75 kts 94°
2026-05-04 13:02 51.87470 -2.15647 1096 ft 72 kts 57°
2026-05-04 13:03 51.87882 -2.15200 1097 ft 74 kts 15°
2026-05-04 13:03 51.88397 -2.15138 1113 ft 75 kts
2026-05-04 13:03 51.88916 -2.15141 1127 ft 75 kts
2026-05-04 13:03 51.89441 -2.15131 1123 ft 77 kts
2026-05-04 13:04 51.89968 -2.15082 1136 ft 76 kts
2026-05-04 13:04 51.90498 -2.14975 1141 ft 77 kts 10°
2026-05-04 13:04 51.91026 -2.15105 1158 ft 79 kts 339°
2026-05-04 13:04 51.91436 -2.15789 1111 ft 89 kts 303°
2026-05-04 13:05 51.91596 -2.16755 1116 ft 89 kts 279°
2026-05-04 13:05 51.91607 -2.17767 1076 ft 89 kts 274°
2026-05-04 13:05 51.91638 -2.18761 936 ft 88 kts 278°
2026-05-04 13:05 51.91709 -2.19745 790 ft 86 kts 282°
2026-05-04 13:06 51.91678 -2.20671 710 ft 79 kts 255°
2026-05-04 13:06 51.91358 -2.21361 624 ft 77 kts 213°
2026-05-04 13:06 51.90846 -2.21587 587 ft 76 kts 183°
2026-05-04 13:06 51.90314 -2.21689 590 ft 80 kts 177°
2026-05-04 13:07 51.89841 -2.21354 540 ft 75 kts 129°
2026-05-04 13:07 51.89520 -2.20743 462 ft 68 kts 123°
2026-05-04 13:07 51.89289 -2.20068 387 ft 71 kts 105°
2026-05-04 13:07 51.89231 -2.19286 306 ft 69 kts 84°
2026-05-04 13:08 51.89286 -2.18554 230 ft 64 kts 86°
2026-05-04 13:08 51.89332 -2.17854 152 ft 61 kts 83°
2026-05-04 13:08 51.89375 -2.17191 105 ft 54 kts 85°
2026-05-04 13:08 51.89415 -2.16499 204 ft 72 kts 81°
2026-05-04 13:09 51.89422 -2.15684 471 ft 72 kts 84°
2026-05-04 13:09 51.89707 -2.15135 685 ft 68 kts 15°
2026-05-04 13:09 51.90174 -2.14972 758 ft 73 kts 12°
2026-05-04 13:09 51.90691 -2.15073 810 ft 80 kts 331°
2026-05-04 13:10 51.90998 -2.15829 852 ft 85 kts 284°
2026-05-04 13:10 51.90982 -2.16780 911 ft 83 kts 266°
2026-05-04 13:10 51.90926 -2.17734 923 ft 85 kts 267°
2026-05-04 13:10 51.90901 -2.18686 922 ft 85 kts 271°
2026-05-04 13:11 51.90893 -2.19657 890 ft 88 kts 272°
2026-05-04 13:11 51.90884 -2.20618 867 ft 86 kts 271°
2026-05-04 13:11 51.90860 -2.21569 835 ft 85 kts 261°
2026-05-04 13:11 51.90551 -2.22333 793 ft 79 kts 212°
2026-05-04 13:12 51.90031 -2.22534 762 ft 76 kts 177°
2026-05-04 13:12 51.89503 -2.22498 718 ft 77 kts 163°
2026-05-04 13:12 51.89113 -2.21989 656 ft 72 kts 110°
2026-05-04 13:12 51.89100 -2.21186 531 ft 70 kts 81°
2026-05-04 13:13 51.89163 -2.20417 411 ft 67 kts 82°
2026-05-04 13:13 51.89203 -2.19706 328 ft 60 kts 82°
2026-05-04 13:13 51.89242 -2.19023 286 ft 62 kts 82°
2026-05-04 13:13 51.89297 -2.18332 201 ft 61 kts 88°
2026-05-04 13:14 51.89337 -2.17688 126 ft 59 kts 82°
2026-05-04 13:14 51.89388 -2.17020 107 ft 57 kts 86°
2026-05-04 13:14 51.89419 -2.16435 105 ft 46 kts 81°
2026-05-04 13:14 51.89452 -2.16018 105 ft 21 kts 83°
2026-05-04 13:15 51.89450 -2.15917 105 ft 4 kts 145°
2026-05-04 13:15 51.89405 -2.15935 105 ft 10 kts 158°
2026-05-04 13:15 51.89343 -2.15854 105 ft 13 kts 162°
2026-05-04 13:15 51.89248 -2.15825 105 ft 14 kts 171°
2026-05-04 13:16 51.89175 -2.15814 105 ft 5 kts 217°
2026-05-04 13:16 51.89179 -2.15858 105 ft 0 kts 346°